TimeAKST,TemperatureF,Dew PointF,Humidity,Sea Level PressureIn,VisibilityMPH,Wind Direction,Wind SpeedMPH,Gust SpeedMPH,PrecipitationIn,Events,Conditions,WindDirDegrees,DateUTC
12:16 AM,32.0,26.6,80,30.10,10.0,Calm,Calm,-,N/A,,Mostly Cloudy,0,2013-02-13 09:16:00
12:36 AM,30.2,26.6,86,30.11,10.0,Calm,Calm,-,N/A,,Overcast,0,2013-02-13 09:36:00
12:56 AM,35.6,30.2,81,30.12,10.0,SE,5.8,-,N/A,,Overcast,140,2013-02-13 09:56:00
1:16 AM,35.6,26.6,70,30.13,10.0,SSE,6.9,-,N/A,,Overcast,150,2013-02-13 10:16:00
1:36 AM,32.0,24.8,75,30.13,10.0,WSW,3.5,-,N/A,,Overcast,240,2013-02-13 10:36:00
1:56 AM,32.0,26.6,80,30.14,10.0,NNW,3.5,-,N/A,,Overcast,340,2013-02-13 10:56:00
2:16 AM,32.0,26.6,80,30.14,10.0,Calm,Calm,-,N/A,,Overcast,0,2013-02-13 11:16:00
2:36 AM,33.8,26.6,75,30.15,10.0,SSE,6.9,-,N/A,,Overcast,150,2013-02-13 11:36:00
2:56 AM,35.6,28.4,75,30.15,5.0,SSE,6.9,-,N/A,,Overcast,150,2013-02-13 11:56:00
3:16 AM,35.6,28.4,75,30.16,10.0,SSE,9.2,-,N/A,,Overcast,150,2013-02-13 12:16:00
3:36 AM,33.8,28.4,81,30.16,10.0,SE,6.9,-,N/A,,Overcast,140,2013-02-13 12:36:00
3:56 AM,35.6,28.4,75,30.16,10.0,South,3.5,-,N/A,,Overcast,180,2013-02-13 12:56:00
4:16 AM,35.6,28.4,75,30.16,10.0,SSE,5.8,-,N/A,,Overcast,150,2013-02-13 13:16:00
4:36 AM,35.6,28.4,75,30.16,10.0,SSE,4.6,-,N/A,,Overcast,150,2013-02-13 13:36:00
4:56 AM,35.6,28.4,75,30.16,7.0,SSE,4.6,-,N/A,,Overcast,160,2013-02-13 13:56:00
5:16 AM,35.6,28.4,75,30.15,10.0,SSE,4.6,-,N/A,,Overcast,150,2013-02-13 14:16:00
5:56 AM,33.8,28.4,81,30.16,10.0,NNW,6.9,-,N/A,,Overcast,330,2013-02-13 14:56:00
6:16 AM,32.0,28.4,87,30.16,10.0,NNW,5.8,-,N/A,,Overcast,330,2013-02-13 15:16:00
6:36 AM,32.0,28.4,87,30.16,10.0,NNW,4.6,-,N/A,,Overcast,340,2013-02-13 15:36:00
6:56 AM,32.0,28.4,87,30.17,10.0,NNW,4.6,-,N/A,,Overcast,330,2013-02-13 15:56:00
7:16 AM,32.0,28.4,87,30.17,9.0,NNW,4.6,-,N/A,,Overcast,340,2013-02-13 16:16:00
7:36 AM,33.8,28.4,81,30.18,10.0,NNW,4.6,-,N/A,,Overcast,340,2013-02-13 16:36:00
7:56 AM,32.0,28.4,87,30.18,10.0,NNW,5.8,-,N/A,,Overcast,330,2013-02-13 16:56:00
8:16 AM,32.0,28.4,87,30.19,10.0,NNW,5.8,-,N/A,,Overcast,340,2013-02-13 17:16:00
8:36 AM,32.0,28.4,87,30.19,10.0,North,4.6,-,N/A,,Overcast,350,2013-02-13 17:36:00
8:56 AM,32.0,28.4,87,30.19,9.0,NNW,4.6,-,N/A,,Overcast,330,2013-02-13 17:56:00
9:16 AM,32.0,28.4,87,30.19,8.0,NNW,4.6,-,N/A,,Overcast,340,2013-02-13 18:16:00
9:36 AM,33.8,28.4,81,30.19,10.0,NNW,4.6,-,N/A,,Overcast,340,2013-02-13 18:36:00
9:56 AM,33.8,28.4,81,30.20,10.0,NNW,4.6,-,N/A,,Overcast,330,2013-02-13 18:56:00
10:16 AM,33.8,30.2,87,30.21,10.0,Calm,Calm,-,N/A,,Overcast,0,2013-02-13 19:16:00
10:36 AM,33.8,30.2,87,30.21,10.0,NNW,6.9,-,N/A,,Overcast,340,2013-02-13 19:36:00
10:56 AM,33.8,30.2,87,30.21,10.0,NNW,4.6,-,N/A,,Overcast,340,2013-02-13 19:56:00
11:16 AM,33.8,30.2,87,30.22,10.0,NNW,6.9,-,N/A,,Overcast,330,2013-02-13 20:16:00
11:36 AM,35.6,30.2,81,30.22,10.0,NW,4.6,-,N/A,,Overcast,320,2013-02-13 20:36:00
11:56 AM,35.6,30.2,81,30.21,10.0,NNW,5.8,-,N/A,,Overcast,340,2013-02-13 20:56:00
12:16 PM,37.4,32.0,81,30.21,10.0,ESE,6.9,-,N/A,,Overcast,110,2013-02-13 21:16:00
12:36 PM,39.2,33.8,81,30.21,10.0,WNW,3.5,-,N/A,,Overcast,300,2013-02-13 21:36:00
12:56 PM,35.6,30.2,81,30.21,10.0,NNW,9.2,-,N/A,,Overcast,330,2013-02-13 21:56:00
1:16 PM,35.6,30.2,81,30.21,10.0,NNW,8.1,-,N/A,,Overcast,330,2013-02-13 22:16:00
1:36 PM,35.6,32.0,87,30.21,10.0,NW,5.8,-,N/A,,Overcast,320,2013-02-13 22:36:00
1:56 PM,37.4,30.2,75,30.21,10.0,NNW,6.9,-,N/A,,Overcast,330,2013-02-13 22:56:00
2:16 PM,35.6,30.2,81,30.21,10.0,NW,8.1,-,N/A,,Overcast,320,2013-02-13 23:16:00
2:36 PM,35.6,30.2,81,30.19,10.0,NNW,6.9,-,N/A,,Overcast,330,2013-02-13 23:36:00
2:56 PM,35.6,30.2,81,30.18,10.0,NNW,8.1,-,N/A,,Overcast,330,2013-02-13 23:56:00
3:16 PM,35.6,30.2,81,30.18,10.0,NW,5.8,-,N/A,,Overcast,320,2013-02-14 00:16:00
3:36 PM,35.6,30.2,81,30.17,10.0,NNW,5.8,-,N/A,,Overcast,340,2013-02-14 00:36:00
3:56 PM,33.8,30.2,87,30.18,10.0,NW,6.9,-,N/A,,Overcast,320,2013-02-14 00:56:00
4:16 PM,33.8,30.2,87,30.17,10.0,NNW,8.1,-,N/A,,Overcast,340,2013-02-14 01:16:00
4:36 PM,33.8,30.2,87,30.17,10.0,North,5.8,-,N/A,,Overcast,350,2013-02-14 01:36:00
4:56 PM,33.8,30.2,87,30.17,10.0,North,5.8,-,N/A,,Overcast,350,2013-02-14 01:56:00
5:16 PM,33.8,30.2,87,30.15,10.0,NNW,6.9,-,N/A,,Mostly Cloudy,340,2013-02-14 02:16:00
5:36 PM,33.8,28.4,81,30.15,10.0,NNW,4.6,-,N/A,,Mostly Cloudy,340,2013-02-14 02:36:00
5:56 PM,33.8,28.4,81,30.16,10.0,NNW,5.8,-,N/A,,Mostly Cloudy,340,2013-02-14 02:56:00
6:16 PM,33.8,28.4,81,30.15,10.0,NNW,5.8,-,N/A,,Overcast,330,2013-02-14 03:16:00
6:36 PM,33.8,28.4,81,30.14,10.0,North,3.5,-,N/A,,Overcast,350,2013-02-14 03:36:00
6:56 PM,33.8,28.4,81,30.12,10.0,North,3.5,-,N/A,,Overcast,350,2013-02-14 03:56:00
7:16 PM,37.4,32.0,81,30.13,10.0,SSE,4.6,-,N/A,,Overcast,160,2013-02-14 04:16:00
7:36 PM,39.2,30.2,70,30.14,10.0,SSE,9.2,-,N/A,,Overcast,150,2013-02-14 04:36:00
7:56 PM,37.4,30.2,75,30.14,10.0,SE,9.2,-,N/A,,Overcast,130,2013-02-14 04:56:00
8:16 PM,37.4,30.2,75,30.14,10.0,SE,10.4,-,N/A,,Overcast,130,2013-02-14 05:16:00
8:36 PM,37.4,30.2,75,30.13,10.0,ESE,11.5,-,N/A,,Overcast,120,2013-02-14 05:36:00
8:56 PM,37.4,30.2,75,30.10,10.0,ESE,10.4,-,N/A,,Mostly Cloudy,120,2013-02-14 05:56:00
9:16 PM,37.4,30.2,75,30.10,10.0,SE,8.1,-,N/A,,Mostly Cloudy,130,2013-02-14 06:16:00
9:36 PM,37.4,30.2,75,30.11,10.0,SE,9.2,-,N/A,,Overcast,140,2013-02-14 06:36:00
9:56 PM,39.2,30.2,70,30.10,10.0,SE,11.5,16.1,N/A,,Overcast,140,2013-02-14 06:56:00
10:16 PM,39.2,30.2,70,30.09,10.0,SE,10.4,-,N/A,,Overcast,140,2013-02-14 07:16:00
10:36 PM,39.2,30.2,70,30.08,10.0,SE,11.5,16.1,N/A,,Overcast,130,2013-02-14 07:36:00
10:56 PM,39.2,30.2,70,30.07,10.0,SE,11.5,-,N/A,,Overcast,130,2013-02-14 07:56:00
11:16 PM,39.2,30.2,70,30.08,10.0,SE,10.4,-,N/A,,Overcast,140,2013-02-14 08:16:00
11:36 PM,39.2,30.2,70,30.07,10.0,SE,11.5,-,N/A,,Overcast,140,2013-02-14 08:36:00
11:56 PM,39.2,30.2,70,30.06,10.0,SE,11.5,-,N/A,,Overcast,140,2013-02-14 08:56:00